This is the latest recevied weather packets stored in our database for station/object DL3MEB-6. If no packets are shown the sender has not sent any weather packets the latest 10 day(s).
| Time | Temp. | Humidity | Pressure | Rain* | Wind** | Luminosity | Snow |
|---|---|---|---|---|---|---|---|
| 1788037053 | 16.67° C | 78% | 1015.3 hPa | 0 mm | - | - | - |
| 1788036142 | 17.22° C | 75% | 1015.4 hPa | 0 mm | - | - | - |
| 1788035238 | 17.22° C | 72% | 1015.3 hPa | 0 mm | - | - | - |
| 1788034331 | 17.78° C | 69% | 1015.2 hPa | 0 mm | - | - | - |
| 1788033426 | 18.33° C | 68% | 1015.3 hPa | 0 mm | - | - | - |
| 1788032521 | 18.89° C | 66% | 1015.1 hPa | 0 mm | - | - | - |
| 1788031613 | 19.44° C | 64% | 1015 hPa | 0 mm | - | - | - |
| 1788030709 | 20.56° C | 62% | 1014.9 hPa | 0 mm | - | - | - |
| 1788029800 | 21.11° C | 59% | 1014.7 hPa | 0 mm | - | - | - |
| 1788028898 | 22.22° C | 56% | 1014.5 hPa | 0 mm | - | - | - |
| 1788027992 | 23.33° C | 54% | 1014.4 hPa | 0 mm | - | - | - |
| 1788027080 | 23.89° C | 51% | 1014.4 hPa | 0 mm | - | - | - |
| 1788026172 | 24.44° C | 46% | 1014.4 hPa | 0 mm | - | - | - |
| 1788025264 | 25° C | 44% | 1014.4 hPa | 0 mm | - | - | - |
| 1788024355 | 25° C | 46% | 1014.3 hPa | 0 mm | - | - | - |
| 1788023453 | 24.44° C | 39% | 1014.6 hPa | 0 mm | - | - | - |
| 1788022545 | 24.44° C | 39% | 1014.6 hPa | 0 mm | - | - | - |
| 1788021637 | 24.44° C | 39% | 1014.5 hPa | 0 mm | - | - | - |
| 1788020727 | 25° C | 39% | 1014.5 hPa | 0 mm | - | - | - |
| 1788019822 | 25° C | 39% | 1014.4 hPa | 0 mm | - | - | - |
| 1788018912 | 25.56° C | 37% | 1014.4 hPa | 0 mm | - | - | - |
| 1788018007 | 25.56° C | 39% | 1014.5 hPa | 0 mm | - | - | - |
| 1788017101 | 26.67° C | 34% | 1014.4 hPa | 0 mm | - | - | - |
| 1788016202 | 26.11° C | 37% | 1014.4 hPa | 0 mm | - | - | - |
| 1788015291 | 26.11° C | 37% | 1014.5 hPa | 0 mm | - | - | - |
* Rain latest hour (hover to see other rain measurements)
** Current wind speed in m/s (hover to see current wind gust speed)